Flag for Iran Weather past 2 weeks in Rafsanjan, Iran

Now
79 °F

Clear.


Feels Like: 77 °F
Forecast: 60 / 94 °F
Wind: 7 mph from Northeast

Location: Kerman Airport

Current Time: Sep 22, 2014 at 9:48:58 PM

Latest Report: Sep 22, 2014 at 8:30 PM


Visibility: 10 mi

Pressure: 30.07 "Hg

Humidity: 12%

Dew point: 23 °F

Location of RafsanjanLocation

Historic Weather in Rafsanjan — Graph

°F

Rafsanjan temperature yesterday

Maximum temperature yesterday: 93 °F (at 2:00 PM)
Minimum temperature yesterday: 54 °F (at 5:30 AM)
Average temperature yesterday: 78 °F

Past Weeks' High & Low Weather Summary

 TemperatureHumidityPressure
High95 °F (Sep 8, 4:30 PM)31% (Sep 17, 7:30 AM)30.24 "Hg (Sep 17, 7:30 AM)
Low50 °F (Sep 14, 6:30 AM)3% (Sep 13, 2:00 PM)29.77 "Hg (Sep 16, 6:00 PM)
Average79 °F12%30.07 "Hg
* Reported Sep 7 9:30 PM — Sep 22 8:30 PM, Rafsanjan, Weather by CustomWeather, © 2014

Note: Actual official high and low records may vary slightly from our data, if they occured in-between our weather recording intervals... More about our weather records

Advertising

Rafsanjan weather history for previous 24 hours

 ConditionsComfort  
Time TempWeatherWind HumidityBarometerVisibility
8:30 PM
Sep 22
79 °FClear.7 mph12%30.07 "Hg10 mi
7:30 PM79 °FPassing clouds.7 mph12%30.04 "HgN/A
6:30 PM82 °FPassing clouds.12 mph11%30.04 "HgN/A
6:00 PM86 °FPassing clouds.12 mph9%30.04 "HgN/A
5:30 PM90 °FSunny.12 mph9%30.01 "Hg10 mi
5:00 PM93 °FSunny.5 mph7%30.01 "Hg10 mi
4:30 PM93 °FSunny.7 mph8%30.01 "Hg10 mi
4:00 PM93 °FSunny.5 mph8%30.01 "Hg10 mi
3:30 PM93 °FSunny.9 mph8%30.01 "Hg10 mi
3:00 PM95 °FSunny.14 mph7%30.01 "Hg10 mi
2:30 PM93 °FSunny.7 mph7%30.04 "Hg10 mi
2:00 PM93 °FSunny.7 mph7%30.04 "Hg10 mi
1:30 PM93 °FSunny.9 mph7%30.04 "Hg10 mi
1:00 PM93 °FSunny.12 mph7%30.07 "Hg10 mi
12:30 PM93 °FSunny.9 mph8%30.07 "Hg10 mi
12:00 PM91 °FSunny.9 mph9%30.09 "Hg10 mi
11:30 AM90 °FSunny.14 mph10%30.09 "Hg10 mi
11:00 AM90 °FSunny.12 mph9%30.09 "Hg10 mi
10:30 AM88 °FSunny.9 mph11%30.09 "Hg10 mi
10:00 AM88 °FSunny.9 mph12%30.12 "Hg10 mi
9:30 AM86 °FSunny.12 mph12%30.12 "Hg10 mi
9:00 AM84 °FSunny.12 mph16%30.12 "Hg10 mi
8:30 AM82 °FSunny.7 mph20%30.12 "Hg10 mi
8:00 AM70 °FSunny.7 mph27%30.12 "Hg10 mi
7:30 AM70 °FSunny.7 mph27%30.12 "Hg10 mi
6:30 AM63 °FSunny.7 mph24%30.09 "Hg10 mi
5:30 AM59 °FClear.7 mph23%30.09 "Hg10 mi
4:30 AM59 °FClear.7 mph21%30.07 "Hg10 mi
3:30 AM64 °FClear.9 mph18%30.07 "Hg10 mi
2:30 AM64 °FClear.7 mph16%30.04 "Hg10 mi
1:30 AM64 °FClear.7 mph16%30.04 "Hg10 mi
12:30 AM68 °FClear.7 mph14%30.07 "Hg10 mi
11:30 PM
Sep 21
73 °FClear.9 mph11%30.07 "Hg10 mi
11:30 PM75 °FClear.7 mph10%30.07 "Hg10 mi
10:30 PM77 °FClear.12 mph10%30.07 "Hg10 mi
9:30 PM81 °FClear.7 mph9%30.07 "Hg10 mi
Weather by CustomWeather, © 2014

See weather overviewHow to use our weather pages